• în România
  • Lista ţărilor
  • Pe 7 zile
  • Temperatura apei
  • Hartă satelitară
  • Meteo pe hartă
  • Widget-uri
  • user-avatar
    Intrare

    Meteo pe oră la Zmeyka

    Astăzi, 25 Septembrie, Marţi

    Timp Temperatura Precipitaţii Vânt Presiune Umiditate
    00:00 +18°C° 0 mm 3 m/s 731 mmHg 75%
    01:00 +18°C° 0 mm 2 m/s 731 mmHg 74%
    02:00 +17°C° 0 mm 2 m/s 730 mmHg 73%
    03:00 +17°C° 0 mm 2 m/s 730 mmHg 73%
    04:00 +17°C° 0 mm 2 m/s 730 mmHg 72%
    05:00 +17°C° 0 mm 2 m/s 730 mmHg 72%
    06:00 +18°C° 0 mm 1 m/s 730 mmHg 71%
    07:00 +20°C° 0 mm 1 m/s 730 mmHg 65%
    08:00 +22°C° 0 mm 1 m/s 729 mmHg 60%
    09:00 +24°C° 0 mm 1 m/s 729 mmHg 54%
    10:00 +26°C° 0 mm 1 m/s 729 mmHg 50%
    11:00 +27°C° 0 mm 2 m/s 729 mmHg 47%
    12:00 +29°C° 0 mm 2 m/s 729 mmHg 43%
    13:00 +29°C° 0 mm 2 m/s 729 mmHg 42%
    14:00 +30°C° 0 mm 2 m/s 729 mmHg 41%
    15:00 +30°C° 0 mm 2 m/s 729 mmHg 40%
    16:00 +28°C° 0 mm 2 m/s 729 mmHg 46%
    17:00 +27°C° 0 mm 2 m/s 730 mmHg 52%
    18:00 +25°C° 0 mm 2 m/s 730 mmHg 57%
    19:00 +22°C° 0.3 mm 3 m/s 731 mmHg 64%
    20:00 +21°C° 0.3 mm 4 m/s 731 mmHg 71%
    21:00 +19°C° 0.3 mm 6 m/s 732 mmHg 78%
    22:00 +17°C° 0.1 mm 5 m/s 732 mmHg 78%
    23:00 +16°C° 0.1 mm 5 m/s 733 mmHg 78%

    Mâine, 26 Septembrie, Miercuri

    Timp Temperatura Precipitaţii Vânt Presiune Umiditate
    00:00 +17°C° 0.1 mm 4 m/s 733 mmHg 78%
    01:00 +15°C° 0.2 mm 4 m/s 733 mmHg 79%
    02:00 +14°C° 0.2 mm 4 m/s 734 mmHg 79%
    03:00 +14°C° 0.2 mm 4 m/s 734 mmHg 80%
    04:00 +13°C° 0.1 mm 4 m/s 734 mmHg 79%
    05:00 +13°C° 0.1 mm 4 m/s 735 mmHg 77%
    06:00 +12°C° 0.1 mm 4 m/s 735 mmHg 76%
    07:00 +12°C° 0 mm 4 m/s 735 mmHg 76%
    08:00 +12°C° 0 mm 3 m/s 736 mmHg 75%
    09:00 +12°C° 0 mm 3 m/s 736 mmHg 75%
    10:00 +12°C° 0.1 mm 3 m/s 737 mmHg 74%
    11:00 +12°C° 0.1 mm 3 m/s 737 mmHg 73%
    12:00 +13°C° 0.1 mm 2 m/s 737 mmHg 72%
    13:00 +14°C° 0 mm 2 m/s 737 mmHg 69%
    14:00 +14°C° 0 mm 2 m/s 737 mmHg 67%
    15:00 +15°C° 0 mm 2 m/s 737 mmHg 64%
    16:00 +14°C° 0 mm 1 m/s 737 mmHg 65%
    17:00 +14°C° 0 mm 1 m/s 737 mmHg 66%
    18:00 +14°C° 0 mm 1 m/s 737 mmHg 67%
    19:00 +13°C° 0 mm 1 m/s 737 mmHg 68%
    20:00 +13°C° 0 mm 1 m/s 738 mmHg 69%
    21:00 +13°C° 0 mm 2 m/s 738 mmHg 71%
    22:00 +12°C° 0 mm 2 m/s 738 mmHg 72%
    23:00 +12°C° 0 mm 1 m/s 738 mmHg 73%

    Poimâine, 27 Septembrie, Joi

    Timp Temperatura Precipitaţii Vânt Presiune Umiditate
    00:00 +12°C° 0 mm 1 m/s 738 mmHg 74%
    01:00 +12°C° 0 mm 1 m/s 738 mmHg 74%
    02:00 +12°C° 0 mm 1 m/s 738 mmHg 74%
    03:00 +11°C° 0 mm 1 m/s 738 mmHg 74%
    04:00 +11°C° 0 mm 1 m/s 738 mmHg 76%
    05:00 +11°C° 0 mm 1 m/s 738 mmHg 78%
    06:00 +10°C° 0 mm 1 m/s 738 mmHg 79%
    07:00 +11°C° 0.3 mm 1 m/s 738 mmHg 78%
    08:00 +12°C° 0.3 mm 1 m/s 738 mmHg 76%
    09:00 +12°C° 0.3 mm 2 m/s 739 mmHg 75%
    10:00 +14°C° 0 mm 2 m/s 738 mmHg 69%
    11:00 +15°C° 0 mm 2 m/s 738 mmHg 64%
    12:00 +17°C° 0 mm 3 m/s 738 mmHg 59%
    13:00 +17°C° 0 mm 3 m/s 738 mmHg 57%
    14:00 +18°C° 0 mm 2 m/s 738 mmHg 55%
    15:00 +18°C° 0 mm 2 m/s 737 mmHg 54%
    16:00 +17°C° 0 mm 2 m/s 737 mmHg 58%
    17:00 +16°C° 0 mm 2 m/s 737 mmHg 62%
    18:00 +15°C° 0 mm 2 m/s 737 mmHg 67%
    19:00 +15°C° 0 mm 1 m/s 737 mmHg 69%
    20:00 +14°C° 0 mm 1 m/s 737 mmHg 72%
    21:00 +14°C° 0 mm 1 m/s 738 mmHg 74%
    22:00 +13°C° 0 mm 1 m/s 738 mmHg 75%
    23:00 +13°C° 0 mm 1 m/s 737 mmHg 76%

    28 Septembrie, Vineri

    Timp Temperatura Precipitaţii Vânt Presiune Umiditate
    00:00 +13°C° 0 mm 1 m/s 737 mmHg 76%
    01:00 +13°C° 0 mm 1 m/s 737 mmHg 77%
    02:00 +13°C° 0 mm 1 m/s 737 mmHg 77%
    03:00 +12°C° 0 mm 1 m/s 737 mmHg 78%
    04:00 +12°C° 0 mm 1 m/s 737 mmHg 78%
    05:00 +12°C° 0 mm 1 m/s 737 mmHg 79%
    06:00 +12°C° 0 mm 1 m/s 737 mmHg 80%
    07:00 +14°C° 0 mm 1 m/s 737 mmHg 73%
    08:00 +16°C° 0 mm 1 m/s 737 mmHg 67%
    09:00 +19°C° 0 mm 1 m/s 737 mmHg 60%
    10:00 +19°C° 0 mm 2 m/s 737 mmHg 56%
    11:00 +20°C° 0 mm 2 m/s 737 mmHg 52%
    12:00 +22°C° 0 mm 3 m/s 736 mmHg 48%
    13:00 +22°C° 0 mm 3 m/s 736 mmHg 47%
    14:00 +22°C° 0 mm 4 m/s 736 mmHg 47%
    15:00 +23°C° 0 mm 4 m/s 735 mmHg 46%
    16:00 +21°C° 0 mm 3 m/s 735 mmHg 51%
    17:00 +20°C° 0 mm 3 m/s 735 mmHg 56%
    18:00 +18°C° 0 mm 3 m/s 735 mmHg 61%
    19:00 +18°C° 0 mm 3 m/s 735 mmHg 63%
    20:00 +17°C° 0 mm 2 m/s 734 mmHg 66%
    21:00 +16°C° 0 mm 2 m/s 734 mmHg 68%
    22:00 +16°C° 0 mm 2 m/s 734 mmHg 69%
    23:00 +16°C° 0 mm 2 m/s 734 mmHg 71%

    29 Septembrie, Sâmbătă

    Timp Temperatura Precipitaţii Vânt Presiune Umiditate
    00:00 +15°C° 0 mm 2 m/s 733 mmHg 72%
    01:00 +15°C° 0 mm 2 m/s 733 mmHg 74%
    02:00 +15°C° 0 mm 2 m/s 733 mmHg 75%
    03:00 +14°C° 0 mm 2 m/s 733 mmHg 76%
    04:00 +14°C° 0 mm 2 m/s 732 mmHg 77%
    05:00 +14°C° 0 mm 1 m/s 732 mmHg 77%
    06:00 +14°C° 0 mm 1 m/s 732 mmHg 77%
    07:00 +16°C° 0 mm 1 m/s 732 mmHg 74%
    08:00 +17°C° 0 mm 2 m/s 732 mmHg 70%
    09:00 +19°C° 0 mm 2 m/s 732 mmHg 66%
    10:00 +20°C° 0 mm 2 m/s 731 mmHg 63%
    11:00 +21°C° 0 mm 2 m/s 731 mmHg 60%
    12:00 +24°C° 0 mm 3 m/s 731 mmHg 57%
    13:00 +24°C° 0 mm 3 m/s 731 mmHg 56%
    14:00 +25°C° 0 mm 3 m/s 730 mmHg 54%
    15:00 +25°C° 0 mm 3 m/s 730 mmHg 53%
    16:00 +24°C° 0 mm 2 m/s 730 mmHg 59%
    17:00 +23°C° 0 mm 2 m/s 730 mmHg 65%
    18:00 +20°C° 0 mm 2 m/s 730 mmHg 71%
    19:00 +20°C° 0 mm 1 m/s 730 mmHg 72%
    20:00 +20°C° 0 mm 1 m/s 730 mmHg 74%
    21:00 +19°C° 0 mm 1 m/s 730 mmHg 76%
    22:00 +19°C° 0 mm 1 m/s 730 mmHg 75%
    23:00 +19°C° 0 mm 1 m/s 730 mmHg 75%

    30 Septembrie, Duminică

    Timp Temperatura Precipitaţii Vânt Presiune Umiditate
    00:00 +19°C° 0 mm 1 m/s 730 mmHg 75%
    01:00 +18°C° 0 mm 1 m/s 730 mmHg 75%
    02:00 +18°C° 0 mm 1 m/s 730 mmHg 75%
    03:00 +18°C° 0 mm 1 m/s 730 mmHg 75%
    04:00 +18°C° 0 mm 1 m/s 730 mmHg 74%
    05:00 +18°C° 0 mm 1 m/s 730 mmHg 74%
    06:00 +16°C° 0 mm 1 m/s 730 mmHg 73%
    07:00 +19°C° 0 mm 1 m/s 731 mmHg 67%
    08:00 +21°C° 0 mm 1 m/s 731 mmHg 62%
    09:00 +23°C° 0 mm 1 m/s 731 mmHg 56%
    10:00 +24°C° 0 mm 1 m/s 731 mmHg 54%
    11:00 +25°C° 0 mm 2 m/s 731 mmHg 52%
    12:00 +26°C° 0 mm 3 m/s 731 mmHg 49%
    13:00 +26°C° 0 mm 3 m/s 731 mmHg 49%
    14:00 +27°C° 0 mm 3 m/s 731 mmHg 49%
    15:00 +27°C° 0 mm 3 m/s 731 mmHg 48%
    16:00 +25°C° 0 mm 2 m/s 731 mmHg 54%
    17:00 +24°C° 0 mm 2 m/s 731 mmHg 59%
    18:00 +23°C° 0 mm 2 m/s 732 mmHg 64%
    19:00 +21°C° 0 mm 2 m/s 732 mmHg 68%
    20:00 +20°C° 0 mm 2 m/s 732 mmHg 71%
    21:00 +21°C° 0 mm 1 m/s 732 mmHg 75%
    22:00 +19°C° 0 mm 2 m/s 731 mmHg 75%
    23:00 +19°C° 0 mm 2 m/s 731 mmHg 76%
    Arată mai mult